Voltar ao catálogo

TITAN 34B AGENA D DEB

AtivoHEO
NORAD 23812·DEBRIS·🇺🇸 United States

Lançado Jul 31, 1983 de Vandenberg Space Force Base

Loading…

Próximas Passagens (próximas 24 horas)

TLE

AtualizadoSource: Space-Track

Época: Sep 14, 2026, 00:18 UTC

1 23812U 83078D   26257.01295073  .00000039  00000-0  68053-4 0  9999
2 23812  63.5887 153.8231 3934575 239.3316  76.1887  7.15660126189505

Acompanhe TITAN 34B AGENA D DEB em tempo real com AllMySat

Download on the App Store